Location: Newark
(58.8333°N, 23.5833°E)
Time: 17:38:23
(UTC+00:00)

Explorer 7 - Pass Details

Date: 24 November 2019
Orbit: 485 x 680 km, 50.3° (Epoch: 06 December)

Event Time Altitude Azimuth Distance (km) Brightness Sun altitude
Rises 01:11:48 0° 265° (W) 2,883 - -40.0°
Reaches altitude 10° 01:14:38 10° 248° (WSW) 1,936 - -39.7°
Maximum altitude 01:17:50 20° 202° (SSW) 1,365 - -39.3°
Drops below altitude 10° 01:20:54 10° 155° (SSE) 1,841 - -38.9°
Sets 01:23:31 0° 138° (SE) 2,694 - -38.6°
